Location: Home
(42.5358°N, 72.7383°W)
Time: 11:44:05
(UTC-04:00)

FENGYUN 1C DEB - Visible Passes

Search period start: 01 October 2022 00:00
Search period end: 11 October 2022 00:00
Orbit: 854 x 1331 km, 98.9° (Epoch: 29 September)

Date Brightness Start Highest point End Pass type
(mag) Time Alt. Az. Time Alt. Az. Time Alt. Az.
01 Oct ? 05:00:36 10° SSE 05:06:37 56° ENE 05:12:08 10° N visible
01 Oct ? 19:44:06 10° N 19:48:38 26° WNW 19:53:24 10° WSW visible
02 Oct ? 04:15:50 10° ESE 04:20:35 25° ENE 04:25:04 10° N visible
02 Oct ? 06:00:05 10° S 06:06:04 50° W 06:11:33 10° NNW visible
02 Oct ? 18:57:05 10° N 19:02:35 59° WNW 19:08:31 10° SSW visible
03 Oct ? 03:33:35 10° ENE 03:34:52 11° NE 03:36:10 10° NE visible
03 Oct ? 05:13:39 10° SSE 05:19:43 72° ENE 05:25:19 10° N visible
03 Oct ? 19:57:35 10° NNW 20:01:38 21° WNW 20:05:54 10° WSW visible
04 Oct ? 04:28:28 10° SE 04:33:37 31° ENE 04:38:27 10° N visible
04 Oct ? 06:13:39 10° SSW 06:19:15 38° W 06:24:28 10° NNW visible
04 Oct ? 19:10:19 10° N 19:15:41 46° WNW 19:21:29 10° SW visible
05 Oct ? 03:45:01 10° E 03:47:48 14° ENE 03:50:32 10° NNE visible
05 Oct ? 05:26:49 10° SSE 05:32:51 89° WSW 05:38:26 10° NNW visible
05 Oct ? 20:11:11 10° NNW 20:14:37 17° WNW 20:18:13 10° W visible
06 Oct ? 04:41:13 10° SE 04:46:40 40° ENE 04:51:46 10° N visible
06 Oct ? 06:27:23 10° SSW 06:32:28 29° W 06:37:17 10° NW visible
06 Oct ? 19:23:35 10° N 19:28:45 37° WNW 19:34:20 10° SW visible
07 Oct ? 03:57:06 10° E 04:00:45 18° ENE 04:04:18 10° NNE visible
07 Oct ? 05:40:04 10° S 05:45:59 69° WSW 05:51:31 10° NNW visible
07 Oct ? 20:25:01 10° NNW 20:27:35 13° WNW 20:30:14 10° W visible
08 Oct ? 04:54:06 10° SE 04:59:43 51° ENE 05:05:02 10° N visible
08 Oct ? 19:36:55 10° N 19:41:48 29° WNW 19:47:05 10° WSW visible
09 Oct ? 04:09:27 10° ESE 04:13:43 22° ENE 04:17:52 10° NNE visible
09 Oct ? 05:53:26 10° S 05:59:09 53° W 06:04:32 10° NNW visible
09 Oct ? 18:49:58 10° N 18:55:44 65° WNW 19:02:05 10° SSW visible
09 Oct ? 20:39:44 10° NW 20:40:30 10° NW 20:41:17 10° WNW visible
10 Oct ? 05:07:05 10° SSE 05:12:48 66° ENE 05:18:14 10° N visible
10 Oct ? 19:50:19 10° NNW 19:54:50 24° WNW 19:59:40 10° WSW visible
